Location: Arbon
(43.0005°N, 0.7472°E)
Time: 11:45:23
(UTC+00:00)

Gbstr 26 Del rocket - Pass Details

Date: 22 April 2026
Orbit: 490 x 1216 km, 51.8° (Epoch: 15 May)

Event Time Altitude Azimuth Distance (km) Brightness Sun altitude
Rises 21:41:46 0° 245° (WSW) 3,267 6.9 -26.7°
Reaches altitude 10° 21:44:28 10° 249° (WSW) 2,218 6.0 -27.0°
Enters shadow 21:48:46 55° 289° (WNW) 775 3.7 -27.4°
